User: anonymous   Login
Location: Unspecified
(0.0000°N, 0.0000°E)
Time: 18:06:25
(UTC+00:00)
Language:

TBA - TO BE ASSIGNED - Orbit

View from above orbital plane
View from above orbital plane
View from above satellite
View from above satellite

Ground track
Ground track

The orbit is defined by the following mean orbital elements,

1 68089U          26145.39770336 +.00000000 +00000-0 +39353-3 0 00006
2 68089  53.1578 182.1354 0001101  87.5253 272.5875 15.34403598    07
Epoch (UTC): 25 May 2026 09:32:41
Eccentricity: 0.0001101
inclination: 53.1578°
perigee height: 462 km
apogee height: 463 km
right ascension of ascending node: 182.1354°
argument of perigee: 87.5253°
revolutions per day: 15.34403598
mean anomaly at epoch: 272.5875°

The dashed part of the orbit path shows where the satellite is in the earth's shadow,  

DLR